Location: Glencliff
(36.1226°N, 86.7183°W)
Time: 18:09:38
(UTC+00:00)

Cosmos 1709 Rocket - Pass Details

Date: 25 August 2019
Orbit: 948 x 1002 km, 82.9° (Epoch: 22 September)

Event Time Altitude Azimuth Distance (km) Brightness Sun altitude
Rises 02:46:09 0° 352° (N) 3,632 7.6 -26.2°
Reaches altitude 10° 02:48:38 10° 352° (N) 2,687 6.9 -26.6°
Maximum altitude 02:54:47 83° 265° (W) 973 3.9 -27.6°
Enters shadow 02:55:49 64° 191° (S) 1,063 4.0 -27.7°
